When you browse on this site, cookies collect data to enhance your experience and personalize the content and advertising you see.
Visit our Privacy Policy to learn more. By continuing to use the site, you agree to this use of cookies and data.
  • In France
  • List of Countries
  • For 7 days
  • Water Temperature
  • Weather Map
  • Weather Widgets
  • user-avatar
    Login

    Hourly Weather Sharm el-Szeikh

    Today, 20 August, Tuesday

    Time Temperature Precipitation Wind Pressure Humidity
    00:00 +29°C° 0 mm 4 mps 752 mmHg 33%
    01:00 +29°C° 0 mm 5 mps 752 mmHg 33%
    02:00 +28°C° 0 mm 4 mps 752 mmHg 36%
    03:00 +27°C° 0 mm 4 mps 752 mmHg 39%
    04:00 +26°C° 0 mm 4 mps 752 mmHg 43%
    05:00 +26°C° 0 mm 4 mps 752 mmHg 47%
    06:00 +28°C° 0 mm 4 mps 753 mmHg 41%
    07:00 +31°C° 0 mm 3 mps 753 mmHg 35%
    08:00 +34°C° 0 mm 3 mps 753 mmHg 30%
    09:00 +36°C° 0 mm 4 mps 753 mmHg 27%
    10:00 +37°C° 0 mm 4 mps 753 mmHg 24%
    11:00 +40°C° 0 mm 4 mps 753 mmHg 21%
    12:00 +40°C° 0 mm 4 mps 752 mmHg 21%
    13:00 +40°C° 0 mm 4 mps 752 mmHg 22%
    14:00 +41°C° 0 mm 4 mps 751 mmHg 22%
    15:00 +41°C° 0 mm 4 mps 751 mmHg 21%
    16:00 +41°C° 0 mm 4 mps 751 mmHg 20%
    17:00 +41°C° 0 mm 4 mps 751 mmHg 18%
    18:00 +38°C° 0 mm 4 mps 751 mmHg 21%
    19:00 +36°C° 0 mm 5 mps 752 mmHg 24%
    20:00 +34°C° 0 mm 5 mps 752 mmHg 26%
    21:00 +33°C° 0 mm 5 mps 752 mmHg 29%
    22:00 +32°C° 0 mm 4 mps 752 mmHg 31%
    23:00 +30°C° 0 mm 3 mps 752 mmHg 33%

    Tomorrow, 21 August, Wednesday

    Time Temperature Precipitation Wind Pressure Humidity
    00:00 +29°C° 0 mm 4 mps 752 mmHg 36%
    01:00 +29°C° 0 mm 4 mps 752 mmHg 39%
    02:00 +28°C° 0 mm 5 mps 752 mmHg 42%
    03:00 +28°C° 0 mm 4 mps 752 mmHg 43%
    04:00 +27°C° 0 mm 4 mps 752 mmHg 44%
    05:00 +27°C° 0 mm 4 mps 752 mmHg 45%
    06:00 +29°C° 0 mm 4 mps 752 mmHg 40%
    07:00 +33°C° 0 mm 4 mps 752 mmHg 34%
    08:00 +36°C° 0 mm 4 mps 752 mmHg 28%
    09:00 +37°C° 0 mm 4 mps 752 mmHg 27%
    10:00 +38°C° 0 mm 4 mps 752 mmHg 26%
    11:00 +41°C° 0 mm 4 mps 752 mmHg 24%
    12:00 +41°C° 0 mm 4 mps 751 mmHg 23%
    13:00 +42°C° 0 mm 4 mps 751 mmHg 22%
    14:00 +43°C° 0 mm 3 mps 750 mmHg 21%
    15:00 +42°C° 0 mm 4 mps 750 mmHg 22%
    16:00 +42°C° 0 mm 5 mps 750 mmHg 22%
    17:00 +41°C° 0 mm 5 mps 749 mmHg 23%
    18:00 +38°C° 0 mm 4 mps 750 mmHg 26%
    19:00 +36°C° 0 mm 3 mps 750 mmHg 29%
    20:00 +34°C° 0 mm 2 mps 750 mmHg 33%
    21:00 +34°C° 0 mm 3 mps 750 mmHg 31%
    22:00 +33°C° 0 mm 3 mps 750 mmHg 29%
    23:00 +33°C° 0 mm 4 mps 750 mmHg 28%

    Day after tomorrow, 22 August, Thursday

    Time Temperature Precipitation Wind Pressure Humidity
    00:00 +32°C° 0 mm 4 mps 750 mmHg 31%
    01:00 +30°C° 0 mm 5 mps 750 mmHg 34%
    02:00 +30°C° 0 mm 5 mps 750 mmHg 37%
    03:00 +29°C° 0 mm 5 mps 750 mmHg 40%
    04:00 +29°C° 0 mm 5 mps 750 mmHg 43%
    05:00 +28°C° 0 mm 5 mps 750 mmHg 46%
    06:00 +32°C° 0 mm 5 mps 750 mmHg 39%
    07:00 +34°C° 0 mm 5 mps 750 mmHg 33%
    08:00 +37°C° 0 mm 5 mps 751 mmHg 27%
    09:00 +39°C° 0 mm 5 mps 750 mmHg 26%
    10:00 +40°C° 0 mm 5 mps 750 mmHg 25%
    11:00 +42°C° 0 mm 5 mps 750 mmHg 23%
    12:00 +43°C° 0 mm 5 mps 749 mmHg 22%
    13:00 +43°C° 0 mm 4 mps 749 mmHg 21%
    14:00 +44°C° 0 mm 4 mps 748 mmHg 20%
    15:00 +45°C° 0 mm 5 mps 748 mmHg 19%
    16:00 +45°C° 0 mm 5 mps 748 mmHg 18%
    17:00 +45°C° 0 mm 5 mps 748 mmHg 17%
    18:00 +42°C° 0 mm 5 mps 748 mmHg 21%
    19:00 +38°C° 0 mm 4 mps 748 mmHg 25%
    20:00 +36°C° 0 mm 4 mps 749 mmHg 28%
    21:00 +35°C° 0 mm 4 mps 749 mmHg 30%
    22:00 +34°C° 0 mm 5 mps 749 mmHg 32%
    23:00 +33°C° 0 mm 5 mps 749 mmHg 34%

    23 August, Friday

    Time Temperature Precipitation Wind Pressure Humidity
    00:00 +32°C° 0 mm 5 mps 749 mmHg 37%
    01:00 +32°C° 0 mm 5 mps 749 mmHg 40%
    02:00 +30°C° 0 mm 4 mps 749 mmHg 42%
    03:00 +30°C° 0 mm 4 mps 749 mmHg 44%
    04:00 +29°C° 0 mm 4 mps 749 mmHg 45%
    05:00 +29°C° 0 mm 4 mps 749 mmHg 46%
    06:00 +32°C° 0 mm 4 mps 749 mmHg 41%
    07:00 +34°C° 0 mm 4 mps 749 mmHg 36%
    08:00 +37°C° 0 mm 4 mps 749 mmHg 31%
    09:00 +38°C° 0 mm 4 mps 749 mmHg 31%
    10:00 +40°C° 0 mm 4 mps 749 mmHg 30%
    11:00 +41°C° 0 mm 4 mps 749 mmHg 29%
    12:00 +42°C° 0 mm 4 mps 749 mmHg 28%
    13:00 +43°C° 0 mm 4 mps 748 mmHg 26%
    14:00 +43°C° 0 mm 3 mps 748 mmHg 25%
    15:00 +43°C° 0 mm 3 mps 748 mmHg 24%
    16:00 +43°C° 0 mm 3 mps 748 mmHg 24%
    17:00 +43°C° 0 mm 3 mps 747 mmHg 23%
    18:00 +39°C° 0 mm 3 mps 748 mmHg 29%
    19:00 +36°C° 0 mm 3 mps 748 mmHg 35%
    20:00 +34°C° 0 mm 2 mps 749 mmHg 41%
    21:00 +34°C° 0 mm 3 mps 749 mmHg 40%
    22:00 +34°C° 0 mm 3 mps 749 mmHg 40%
    23:00 +34°C° 0 mm 3 mps 749 mmHg 39%

    24 August, Saturday

    Time Temperature Precipitation Wind Pressure Humidity
    00:00 +32°C° 0 mm 4 mps 749 mmHg 43%
    01:00 +30°C° 0 mm 4 mps 749 mmHg 48%
    02:00 +29°C° 0 mm 5 mps 748 mmHg 52%
    03:00 +29°C° 0 mm 5 mps 749 mmHg 55%
    04:00 +28°C° 0 mm 4 mps 749 mmHg 57%
    05:00 +28°C° 0 mm 4 mps 749 mmHg 60%
    06:00 +30°C° 0 mm 4 mps 749 mmHg 54%
    07:00 +33°C° 0 mm 4 mps 750 mmHg 49%
    08:00 +36°C° 0 mm 4 mps 750 mmHg 43%
    09:00 +37°C° 0 mm 3 mps 750 mmHg 40%
    10:00 +39°C° 0 mm 3 mps 750 mmHg 37%
    11:00 +40°C° 0 mm 3 mps 750 mmHg 33%
    12:00 +41°C° 0 mm 2 mps 750 mmHg 30%
    13:00 +42°C° 0 mm 2 mps 749 mmHg 26%
    14:00 +43°C° 0 mm 2 mps 749 mmHg 22%
    15:00 +42°C° 0 mm 2 mps 749 mmHg 24%
    16:00 +41°C° 0 mm 2 mps 749 mmHg 25%
    17:00 +42°C° 0 mm 3 mps 749 mmHg 26%
    18:00 +39°C° 0 mm 3 mps 749 mmHg 30%
    19:00 +37°C° 0 mm 3 mps 749 mmHg 35%
    20:00 +34°C° 0 mm 3 mps 750 mmHg 39%
    21:00 +34°C° 0 mm 4 mps 750 mmHg 39%
    22:00 +33°C° 0 mm 4 mps 750 mmHg 40%
    23:00 +33°C° 0 mm 4 mps 750 mmHg 40%

    25 August, Sunday

    Time Temperature Precipitation Wind Pressure Humidity
    00:00 +33°C° 0 mm 4 mps 750 mmHg 40%
    01:00 +31°C° 0 mm 3 mps 750 mmHg 41%
    02:00 +31°C° 0 mm 3 mps 750 mmHg 41%
    03:00 +30°C° 0 mm 3 mps 750 mmHg 44%
    04:00 +30°C° 0 mm 3 mps 750 mmHg 47%
    05:00 +29°C° 0 mm 3 mps 750 mmHg 50%
    06:00 +33°C° 0 mm 3 mps 750 mmHg 44%
    07:00 +35°C° 0 mm 3 mps 751 mmHg 39%
    08:00 +38°C° 0 mm 3 mps 751 mmHg 33%
    09:00 +39°C° 0 mm 3 mps 751 mmHg 31%
    10:00 +42°C° 0 mm 3 mps 751 mmHg 28%
    11:00 +43°C° 0 mm 3 mps 751 mmHg 26%
    12:00 +44°C° 0 mm 3 mps 750 mmHg 23%
    13:00 +45°C° 0 mm 3 mps 750 mmHg 20%
    14:00 +46°C° 0 mm 3 mps 749 mmHg 17%
    15:00 +45°C° 0 mm 3 mps 749 mmHg 16%
    16:00 +45°C° 0 mm 3 mps 749 mmHg 16%
    17:00 +45°C° 0 mm 3 mps 749 mmHg 15%
    18:00 +42°C° 0 mm 3 mps 749 mmHg 20%
    19:00 +40°C° 0 mm 4 mps 749 mmHg 24%
    20:00 +36°C° 0 mm 4 mps 750 mmHg 29%
    21:00 +35°C° 0 mm 4 mps 750 mmHg 30%
    22:00 +35°C° 0 mm 4 mps 750 mmHg 30%
    23:00 +34°C° 0 mm 4 mps 750 mmHg 31%
    Show more